Theta_e
276 275 275 274 274 275 274 274 274 273 273 273 273 272 273 273 273 272 272 272 272 272 272 271 271 271 271 271 271 271 271 271 272 272 272 273 274 274 274 274 274 274 275 275 275 275 275 275 275 275 275 275 274 275 275 275 276 276 276 277 279 280
276 275 275 274 273 273 273 273 272 272 272 273 273 273 272 272 271 271 271 271 271 271 271 271 271 271 271 271 271 270 270 271 271 271 272 272 273 273 273 273 273 273 273 274 274 274 275 275 275 275 274 274 274 274 274 274 275 274 275 276 276 277
275 275 275 274 272 273 273 272 272 272 272 271 272 271 271 271 271 270 270 271 270 270 269 269 270 269 270 270 270 270 270 270 271 271 271 272 271 272 272 272 272 273 273 274 274 274 274 274 274 274 273 273 272 273 273 273 274 273 274 275 275 275
275 274 273 271 271 272 272 271 271 270 270 271 271 271 270 270 270 270 270 270 270 269 269 269 269 269 269 269 269 269 269 270 270 270 270 270 270 271 271 271 272 272 273 273 273 273 273 273 273 273 273 272 271 271 272 272 272 273 273 274 274 274
275 274 273 272 273 273 272 271 271 271 270 270 270 270 270 270 270 270 270 269 269 269 269 269 268 268 268 268 268 268 268 269 269 270 269 269 270 270 271 271 271 271 272 272 272 272 271 272 272 272 272 271 271 270 271 271 272 272 272 272 272 273
274 273 273 272 272 271 271 271 270 270 270 270 269 269 270 270 270 270 269 269 269 269 268 268 268 268 268 267 268 267 268 268 268 269 268 269 269 269 270 271 270 271 271 270 270 270 270 270 270 270 270 270 270 270 270 271 271 272 272 272 272 272
273 273 273 273 272 272 271 271 270 270 269 269 269 269 269 269 269 269 268 268 268 268 267 267 267 267 267 267 267 267 267 267 268 268 268 268 269 269 269 269 270 269 269 269 268 268 268 268 268 268 269 269 270 270 270 270 270 271 272 272 272 273
274 273 273 273 272 272 271 270 270 269 269 269 269 268 268 268 268 268 268 267 267 267 266 267 267 267 267 267 267 267 267 267 267 267 268 268 268 268 268 268 268 268 267 267 267 267 267 267 267 268 268 268 269 269 269 270 270 270 271 271 272 272
273 273 272 272 272 271 271 270 269 268 268 268 268 267 267 267 267 267 267 267 266 266 266 266 266 266 266 266 266 266 267 267 266 267 267 268 267 266 266 266 266 266 266 266 266 266 266 266 266 266 267 267 268 268 268 269 269 270 271 271 271 272
273 272 272 271 271 270 270 269 269 268 267 267 267 267 267 267 266 266 266 266 266 266 266 266 266 266 266 266 266 266 266 266 266 266 266 265 265 264 264 264 264 265 265 265 265 265 265 265 265 266 266 267 267 268 268 268 269 269 270 271 271 272
273 272 271 271 271 270 269 268 267 266 267 267 266 266 266 266 266 265 265 265 265 265 265 266 266 266 265 265 265 265 264 264 264 264 264 263 263 263 263 263 263 263 263 264 264 264 265 265 265 266 266 266 267 268 268 268 269 269 269 270 270 271
273 272 271 271 270 269 268 267 266 266 266 266 266 265 266 265 265 265 264 264 265 265 265 265 265 265 264 264 263 263 263 262 262 262 262 262 262 262 262 262 262 262 262 262 263 264 264 264 265 267 271 272 269 269 270 270 270 270 270 270 270 270
272 272 271 271 270 269 268 266 266 265 265 265 265 265 265 265 264 264 264 264 264 265 265 264 264 263 263 262 262 261 261 261 261 260 260 260 260 260 261 261 261 261 262 262 263 263 264 265 266 270 272 273 275 272 271 271 271 272 271 271 271 270
272 272 271 271 270 268 267 266 265 265 265 265 264 265 265 264 264 263 263 264 264 264 264 263 263 262 261 261 260 260 260 259 259 259 259 259 259 260 260 260 261 261 262 263 263 264 264 265 269 272 273 274 275 275 272 272 272 272 272 272 272 272
273 272 271 270 269 268 267 266 265 265 265 264 265 264 263 263 263 263 263 263 263 263 263 262 261 260 260 260 259 259 258 258 258 258 258 258 259 260 260 260 261 262 263 263 263 264 264 265 270 272 273 274 275 276 275 273 273 272 272 273 273 273
273 272 271 270 269 267 266 266 265 265 265 264 264 263 263 263 263 262 262 262 262 262 262 261 260 259 259 259 258 258 258 257 257 258 259 259 260 260 261 261 262 263 263 263 263 263 264 264 268 272 273 274 275 276 276 274 274 273 273 273 273 274
273 271 269 267 266 266 266 266 265 265 264 264 263 263 263 262 262 262 262 262 262 261 260 260 259 258 258 258 258 257 257 257 258 258 259 259 260 260 261 261 261 261 262 262 263 263 263 264 270 272 273 274 275 276 277 274 274 275 275 275 275 274
272 270 267 267 266 265 265 265 265 264 263 264 264 263 261 261 260 262 261 260 260 259 260 259 258 258 257 257 257 256 257 257 258 258 259 260 260 261 261 261 262 261 261 262 262 262 262 263 270 271 272 274 275 277 274 274 274 275 274 274 275 275
271 269 267 266 265 265 265 265 264 263 263 262 262 261 261 261 260 260 260 259 259 259 259 259 258 257 256 256 256 256 256 257 257 258 260 260 260 260 260 260 261 261 261 261 261 262 262 263 267 271 273 274 275 275 273 274 275 275 275 275 275 275
268 267 266 265 265 265 264 264 263 262 262 262 261 261 261 260 259 260 259 259 259 259 258 258 257 256 256 256 255 256 257 257 258 259 260 259 259 259 260 260 260 260 261 261 261 262 262 264 267 271 272 273 275 275 273 273 273 274 275 275 275 275
266 265 265 265 263 264 264 263 262 262 261 261 261 261 260 259 259 259 258 259 259 258 257 256 256 256 255 255 255 256 256 257 258 259 260 260 259 259 260 260 260 260 260 261 261 265 264 263 265 270 271 273 274 274 273 273 273 273 273 274 275 276
265 265 264 264 264 263 263 262 262 261 261 261 261 260 259 259 259 259 259 258 258 257 256 256 255 255 255 255 255 256 257 258 258 259 259 259 259 259 259 259 259 259 260 261 262 262 263 263 264 266 272 274 274 275 272 272 271 271 272 274 275 275
266 265 265 264 263 263 262 262 261 260 260 260 260 259 259 259 259 257 257 257 256 255 255 255 254 254 254 255 255 257 257 258 258 258 258 258 259 258 258 259 259 259 260 261 262 262 263 264 265 267 272 273 273 274 274 271 272 272 272 273 274 275
264 264 263 263 262 262 262 261 260 260 259 259 258 258 259 258 257 256 255 255 254 254 254 254 254 255 255 256 256 256 257 258 258 258 258 258 258 258 258 259 259 260 260 261 262 262 263 266 269 267 270 272 273 274 275 272 272 273 273 273 273 274
263 262 262 262 262 261 261 260 259 259 258 258 258 258 258 257 256 255 254 254 253 253 253 254 254 255 255 256 256 256 256 257 257 257 258 257 258 258 258 259 260 260 261 261 262 263 264 266 266 269 268 271 272 274 274 275 274 276 274 272 272 273
262 261 261 261 261 261 260 259 258 258 257 258 258 258 257 256 254 253 252 252 253 253 253 254 254 255 255 255 256 256 256 256 256 257 257 258 258 259 259 260 261 261 261 261 262 263 264 266 266 268 270 269 272 273 274 275 275 276 273 273 272 273
261 260 260 260 259 259 259 258 257 257 257 257 257 257 255 254 252 251 251 251 252 252 253 253 254 254 254 255 255 255 255 255 256 256 257 258 259 260 260 261 262 261 261 261 262 263 264 265 265 265 267 271 271 273 274 274 275 275 276 272 272 273
260 259 258 259 259 258 258 258 257 255 257 257 256 256 254 252 250 251 250 250 251 251 252 252 254 254 254 254 255 255 255 255 256 256 257 259 260 260 260 261 262 262 262 262 262 263 264 265 265 265 266 268 269 271 272 273 274 274 274 274 272 275
259 258 258 257 258 257 257 257 257 257 256 256 255 255 253 250 250 251 250 250 250 251 252 252 253 254 255 254 254 255 255 255 256 257 258 260 260 260 261 263 262 262 262 262 262 263 264 264 264 265 265 266 268 269 270 270 270 272 273 271 271 273
259 258 258 257 258 257 256 256 256 256 255 255 254 252 250 251 251 250 249 249 251 251 251 252 256 255 253 254 254 254 254 255 256 257 259 259 260 261 262 263 262 262 262 262 263 263 263 263 264 264 265 267 268 268 269 269 269 269 269 270 271 272
259 258 258 258 258 257 256 255 255 255 255 255 253 251 251 251 251 250 249 250 250 250 253 252 251 252 252 253 254 254 254 255 257 259 259 261 262 264 264 263 263 264 264 264 263 263 263 263 264 265 271 269 272 269 268 268 268 269 270 272 275 273
259 258 258 257 257 256 255 255 255 255 255 253 252 251 249 250 250 249 249 249 249 250 251 251 250 251 252 251 252 253 254 259 263 262 261 260 265 268 269 269 265 266 266 265 265 266 265 264 265 271 272 272 272 272 272 272 272 273 271 273 274 274
259 258 257 256 256 255 255 254 254 253 254 253 252 250 249 249 249 248 248 249 248 251 252 250 250 251 251 252 252 252 252 253 255 262 265 265 266 267 268 268 269 270 270 267 265 267 271 271 271 271 271 272 272 272 271 271 271 272 272 272 268 268
258 257 256 256 255 254 254 253 253 252 252 252 251 250 249 249 249 247 246 248 249 251 252 251 251 251 251 251 252 252 252 251 251 252 261 265 265 266 267 267 268 268 269 270 269 268 266 269 271 271 271 271 271 270 270 270 270 272 271 270 269 263
258 257 257 255 255 254 253 252 252 252 252 250 250 249 249 248 248 247 246 247 249 250 251 251 250 250 250 249 250 250 251 251 250 250 250 255 262 264 264 265 266 267 268 269 270 271 270 270 270 271 271 270 270 270 269 269 268 270 270 268 261 260
257 256 255 254 254 253 253 252 252 252 251 250 249 248 247 246 247 247 246 247 249 250 249 249 249 249 249 249 250 250 250 250 250 249 250 250 251 254 258 262 263 265 267 268 269 270 270 270 270 270 270 270 269 269 268 267 263 269 269 266 259 260
256 255 255 254 253 253 252 252 252 251 250 247 246 247 247 248 249 247 249 252 253 249 249 249 249 248 248 249 249 249 250 250 251 251 250 250 250 250 251 252 254 260 265 264 265 269 270 269 269 269 269 269 269 268 266 265 259 258 258 259 259 259
255 254 254 253 253 252 251 251 251 251 249 247 246 246 247 248 248 247 249 250 251 249 249 248 246 247 247 248 249 250 250 251 250 250 249 250 251 250 251 252 253 254 260 265 265 269 268 268 268 268 268 268 268 267 264 256 257 257 257 258 258 259
Wind_Speed
11 10 9 7 6 6 6 6 6 4 3 3 3 2 3 3 2 2 1 1 2 2 3 4 5 5 6 7 8 8 9 10 10 10 10 11 11 11 12 12 13 13 14 13 14 13 15 16 15 15 15 15 14 13 14 14 15 15 16 15 13 11
12 11 11 10 9 7 6 6 5 5 5 3 2 2 3 2 2 2 3 2 2 4 3 3 4 6 7 8 8 9 10 10 10 11 11 11 11 11 13 13 14 14 14 13 14 16 13 16 16 14 15 13 14 13 14 14 16 17 18 17 16 12
11 10 9 8 5 5 6 6 7 5 4 3 2 3 3 2 2 2 2 2 2 3 4 5 5 7 7 8 8 10 10 10 11 10 10 11 12 12 14 13 14 15 15 16 16 15 16 15 16 14 13 13 14 14 15 17 17 19 17 16 18 16
10 9 7 5 6 7 7 6 5 4 4 3 2 1 2 2 2 2 3 2 3 4 5 6 5 6 7 9 10 10 10 10 10 11 11 13 13 12 14 15 14 14 16 16 17 16 17 16 17 17 14 14 15 15 13 14 18 19 19 17 17 18
10 10 9 9 9 9 7 6 5 4 3 2 2 2 3 2 3 2 2 4 4 5 5 6 7 8 8 9 9 9 10 10 11 10 13 13 13 12 13 14 15 16 16 17 17 18 16 18 16 15 15 17 17 16 15 15 17 19 19 19 19 18
8 8 9 9 8 7 7 6 4 3 2 2 2 3 3 2 2 2 2 4 4 5 7 7 7 7 8 9 8 10 10 11 11 11 12 13 13 14 14 14 15 16 16 17 18 17 19 18 17 17 16 17 18 16 17 16 16 17 19 19 19 17
12 12 10 9 8 6 5 5 4 3 2 2 3 3 3 2 2 2 3 4 6 7 7 8 7 8 8 9 9 11 11 11 11 11 12 12 13 13 13 14 14 15 16 16 18 19 18 19 18 19 19 17 17 17 18 18 18 18 18 19 18 19
9 7 8 7 7 7 6 4 4 3 3 3 2 2 2 2 1 2 3 4 6 7 8 7 8 9 10 10 10 11 11 11 11 12 12 12 14 14 14 15 15 14 17 18 18 19 19 18 18 18 19 19 18 17 17 17 18 19 19 19 19 19
13 10 7 7 6 6 5 5 5 4 4 3 2 1 1 1 2 2 4 5 6 7 8 8 7 8 9 9 10 10 11 12 11 11 12 12 13 14 16 16 16 16 16 18 18 18 19 19 19 19 19 19 19 19 19 19 19 19 17 17 17 18
9 9 9 7 7 6 5 4 5 4 4 3 2 0 0 1 2 4 5 5 6 7 9 8 8 8 9 9 9 11 11 11 11 12 12 12 14 14 15 16 17 17 16 17 18 19 18 19 19 19 19 18 18 18 18 18 18 18 18 17 17 17
13 11 10 9 8 8 7 6 5 4 3 2 0 0 1 1 3 4 5 6 6 7 8 8 8 8 8 9 10 9 10 10 11 11 12 12 13 13 14 15 16 17 18 18 18 19 18 17 17 15 15 16 17 17 18 18 18 18 17 17 17 17
11 11 11 10 10 9 8 6 5 4 3 2 1 0 1 1 3 4 4 5 7 7 7 8 8 8 9 9 10 10 10 11 11 11 12 13 13 13 13 14 15 16 17 19 19 18 16 16 14 19 28 25 19 18 16 15 15 16 17 17 17 16
11 11 12 12 11 10 9 7 6 5 3 2 2 0 0 1 2 3 4 6 6 7 7 7 7 8 9 9 9 9 11 12 11 12 12 12 12 12 12 13 15 15 16 18 19 19 17 15 15 27 27 28 30 23 19 17 16 15 15 13 14 14
15 15 14 12 11 10 9 8 8 6 4 3 2 1 1 1 1 4 5 6 6 6 6 7 8 8 8 9 10 11 11 11 11 11 12 12 13 12 11 13 14 14 16 16 17 18 17 17 22 29 28 29 29 27 20 17 16 15 15 16 17 15
17 15 12 11 11 10 9 9 7 5 4 4 2 1 0 1 2 3 5 5 4 5 6 6 7 7 8 9 10 10 10 11 11 12 12 13 12 12 13 12 14 15 14 15 18 18 18 18 24 27 29 29 30 30 25 17 17 16 16 17 17 15
11 11 13 12 10 9 9 7 6 5 4 4 2 1 1 1 3 3 5 4 4 5 5 5 5 7 8 9 10 9 10 11 11 11 11 11 12 12 13 13 14 14 15 17 18 18 18 19 23 29 29 29 30 31 27 17 18 16 16 16 17 16
13 12 11 12 12 9 8 7 6 5 4 4 2 2 3 2 3 3 4 4 5 4 3 5 6 7 8 9 9 10 10 10 11 11 10 10 11 11 11 13 15 14 15 16 16 17 18 17 28 29 31 30 30 30 27 16 16 14 13 14 16 16
19 17 14 10 9 8 7 7 6 5 4 3 3 2 2 3 3 4 3 4 3 3 4 4 6 7 8 10 9 10 11 11 10 12 12 10 10 10 11 11 12 14 15 14 16 17 19 19 28 30 31 32 30 31 18 15 15 13 12 11 14 15
14 15 13 9 9 9 8 7 6 5 4 3 4 3 3 2 3 3 3 3 2 3 3 5 6 7 8 9 10 11 11 12 12 11 9 11 11 12 12 12 11 11 13 15 15 17 18 18 24 29 31 30 30 24 14 14 12 11 13 13 14 14
14 12 11 12 10 8 8 7 7 6 5 5 4 3 3 3 2 2 3 3 2 4 4 5 5 6 8 9 10 11 11 10 9 9 9 11 12 13 12 12 12 11 12 14 16 15 18 18 24 30 29 29 29 24 16 14 13 14 13 14 14 11
15 12 11 11 11 9 8 8 7 6 5 5 4 3 4 2 1 2 2 3 3 4 4 4 5 6 7 8 10 9 11 11 10 10 9 9 10 11 11 11 12 12 12 12 15 22 22 18 21 29 29 29 28 22 14 13 12 13 12 12 11 11
15 12 11 11 11 10 9 8 7 6 5 4 4 4 3 1 1 2 4 4 4 3 4 3 4 6 7 9 10 9 9 10 10 10 10 10 9 10 10 10 11 13 13 13 14 14 15 17 18 21 28 26 27 28 18 13 12 13 13 13 12 12
11 12 12 10 11 9 8 7 7 6 5 5 5 3 2 1 1 2 2 3 3 3 4 4 3 7 8 8 9 9 9 8 10 11 11 11 10 10 11 12 12 12 13 12 13 14 16 15 17 17 25 28 29 29 24 13 13 13 13 13 13 10
11 11 10 9 10 9 8 8 7 6 5 5 3 2 1 1 1 2 2 3 3 3 4 4 6 6 7 8 8 8 9 8 9 10 10 10 10 12 13 12 12 12 13 12 13 13 13 15 21 17 23 28 28 27 29 17 15 17 15 14 13 12
12 10 11 9 9 8 7 7 8 6 5 4 3 2 1 1 1 2 2 3 4 5 5 5 6 8 6 7 8 8 9 9 9 10 10 10 11 11 12 13 12 13 14 12 10 9 14 16 15 23 21 26 27 27 26 28 23 26 18 13 13 14
11 11 10 9 8 7 7 8 8 6 5 4 3 2 1 0 1 1 2 3 4 6 6 6 7 7 7 7 8 8 8 9 9 9 9 9 10 10 12 12 13 12 12 13 13 13 11 13 14 19 25 22 27 27 29 28 28 28 18 16 14 14
15 12 11 8 9 6 6 5 7 7 5 4 3 1 1 0 0 0 2 5 5 6 7 7 6 6 6 7 7 8 8 9 8 9 9 8 9 10 12 12 12 12 12 13 13 11 11 12 15 17 19 26 27 29 27 27 29 27 27 17 13 14
11 12 13 10 8 7 6 5 5 7 6 5 3 2 0 0 0 2 4 5 5 6 7 9 9 6 5 6 7 7 7 8 9 9 9 9 9 10 13 13 12 13 13 13 15 15 17 18 13 14 15 17 21 20 26 30 27 25 26 24 19 24
12 11 12 12 8 7 6 6 4 5 6 5 3 2 1 0 2 4 5 6 5 5 5 7 8 9 8 5 5 7 7 7 8 8 9 8 9 8 8 10 13 14 14 14 14 14 14 13 12 16 16 13 11 13 17 18 16 21 22 15 12 13
13 13 12 11 9 8 7 6 6 6 6 5 4 3 2 2 4 5 5 5 4 5 6 6 9 9 9 8 7 6 6 7 7 8 9 10 10 11 11 12 15 14 9 8 11 14 16 13 10 12 13 15 15 15 15 14 15 13 11 12 12 12
12 12 13 10 9 9 7 7 6 6 5 5 4 4 4 6 5 6 5 5 4 5 4 5 4 6 7 9 10 8 4 6 7 7 8 10 9 11 12 11 10 11 12 13 13 13 8 12 12 12 24 23 26 22 18 15 14 13 12 16 24 18
15 13 12 10 9 8 8 8 6 5 5 4 4 4 5 6 6 5 6 4 3 5 5 5 5 4 6 6 8 11 13 10 11 9 8 8 17 22 22 19 13 14 13 12 12 12 15 13 15 31 34 33 32 32 30 25 25 25 21 25 28 18
13 12 11 10 9 8 8 8 6 5 5 5 4 5 7 5 6 5 5 3 2 5 4 5 5 5 5 5 6 6 8 13 14 14 17 19 20 21 22 22 23 25 26 18 14 15 29 30 32 34 33 33 32 31 30 28 25 27 27 28 17 13
12 12 13 10 9 9 8 8 6 5 5 4 4 4 6 5 7 7 3 1 2 4 5 3 4 5 5 6 4 4 6 6 9 15 19 20 19 22 22 21 23 25 25 28 25 19 14 25 33 34 33 34 33 31 30 29 26 27 28 25 23 14
10 10 10 10 10 9 8 8 6 6 5 4 4 4 6 6 7 6 2 0 2 4 4 4 3 4 4 4 5 6 4 5 6 8 12 18 22 22 18 19 23 25 25 27 28 30 28 27 29 33 34 34 34 33 29 28 27 26 29 31 20 12
10 10 10 10 10 10 9 7 7 6 5 4 4 5 6 6 6 5 2 0 2 3 4 4 3 4 4 4 4 4 5 5 5 6 7 9 12 16 19 19 21 24 27 26 28 29 32 31 31 31 33 33 34 34 30 26 19 28 31 24 11 11
11 10 10 12 10 9 8 8 7 5 5 6 7 6 6 6 7 5 2 3 3 1 3 3 3 3 3 4 4 5 5 5 6 6 7 8 10 11 12 13 15 19 24 21 21 29 33 31 30 30 30 32 33 37 33 24 18 20 17 18 13 10
10 11 11 10 9 9 9 8 6 6 6 7 7 7 6 6 7 4 1 1 2 1 2 2 3 3 4 3 3 4 4 5 5 6 6 7 8 8 9 11 12 13 18 28 26 30 31 31 30 28 29 29 32 33 34 19 15 17 17 13 9 9
Wind_Direction
186 183 179 179 177 175 167 156 161 173 196 206 193 224 236 246 265 271 283 273 280 287 305 312 309 299 292 288 288 291 291 292 291 291 289 289 289 287 287 286 285 283 282 280 278 275 277 274 269 266 265 263 263 265 268 267 266 266 267 262 259 274
184 181 178 177 179 177 173 158 160 182 195 189 208 229 248 273 282 297 311 306 290 300 307 300 290 289 287 291 296 295 294 293 294 294 293 290 290 288 286 285 283 283 283 281 280 281 277 278 274 267 264 262 263 265 267 267 267 267 266 267 272 279
182 184 179 173 160 161 155 163 173 183 171 191 211 220 262 260 267 279 282 282 288 308 307 301 297 295 294 297 296 294 293 295 295 294 294 294 288 288 285 283 283 284 282 282 278 279 281 280 278 272 264 263 264 265 265 267 265 267 267 270 268 269
181 178 168 142 158 160 166 171 153 163 187 198 208 230 262 275 296 273 287 300 317 311 302 300 301 300 303 301 297 291 293 295 296 296 295 289 287 285 285 286 285 283 283 281 281 282 282 280 280 277 269 263 263 265 263 263 265 265 265 264 267 270
178 173 168 170 173 172 168 163 169 175 187 192 220 228 259 253 266 276 306 322 319 307 303 307 304 302 290 284 280 281 285 288 289 288 285 283 284 283 282 286 288 286 285 283 282 284 282 281 277 278 275 272 268 265 264 262 263 264 264 264 266 270
170 169 177 175 171 167 174 170 161 157 173 197 210 235 253 246 256 308 328 306 300 307 308 307 295 281 283 282 283 285 288 286 281 278 278 282 285 289 291 288 290 290 287 287 285 283 284 281 279 278 274 272 272 270 268 266 262 261 262 262 265 266
185 187 177 172 169 168 162 160 163 157 188 194 219 239 239 264 315 336 312 307 320 323 321 310 296 286 284 286 287 286 285 283 282 281 282 289 290 291 295 296 296 294 291 288 287 287 283 280 280 279 277 272 269 270 270 269 268 265 263 263 264 264
180 171 177 169 166 163 160 160 156 166 183 206 208 232 257 312 343 309 318 331 330 324 311 298 298 296 292 291 290 289 288 285 284 289 290 293 295 301 301 300 299 295 292 289 288 285 283 281 279 278 276 275 272 271 270 268 266 265 264 264 263 262
191 181 165 165 160 157 159 160 169 173 180 199 211 214 290 308 319 325 339 341 331 316 310 300 288 292 296 296 292 289 292 291 290 295 300 304 303 304 304 301 297 294 292 291 289 286 285 283 281 278 275 273 271 270 269 267 265 266 265 263 262 261
171 167 169 160 160 156 156 160 161 173 177 200 203 236 278 314 339 339 347 340 323 309 300 297 298 299 300 292 287 287 293 297 302 307 306 307 305 304 302 301 298 295 292 290 289 287 285 283 281 278 275 273 271 268 266 264 266 266 266 265 262 262
179 169 166 167 159 165 159 157 165 168 191 177 185 112 319 355 340 345 341 328 311 300 296 300 302 294 293 294 296 299 303 308 308 308 307 307 305 302 299 297 296 294 294 291 287 287 284 282 280 278 276 274 271 267 264 262 260 259 261 262 262 259
165 167 165 168 171 165 164 169 171 181 179 176 172 287 341 25 350 342 323 310 299 296 298 301 301 298 298 302 310 313 314 314 316 316 313 310 305 302 298 295 291 289 290 292 291 287 284 281 279 277 278 276 274 271 266 261 256 253 249 252 257 258
166 166 172 176 171 169 167 167 170 168 170 171 169 171 9 31 344 315 306 295 291 294 299 299 299 301 304 313 316 319 322 321 319 314 309 306 303 299 297 292 290 288 287 289 289 288 285 282 280 282 282 281 278 276 274 272 270 264 261 252 250 251
177 177 177 171 166 162 162 165 164 164 170 165 160 155 51 22 305 292 285 281 287 295 297 294 298 306 313 323 326 324 321 316 314 312 310 307 306 302 297 292 283 281 284 288 290 289 288 285 285 286 287 284 282 280 277 275 273 270 266 256 256 255
181 174 164 162 163 164 167 155 152 166 165 157 162 119 105 255 265 273 274 280 285 283 285 290 307 317 325 330 326 320 316 315 314 314 312 309 304 299 296 289 288 283 291 296 298 297 295 292 291 290 289 288 285 282 280 277 272 267 266 269 265 257
166 166 165 160 155 150 135 147 152 153 147 140 142 144 208 221 253 255 267 270 269 276 292 307 317 325 328 326 321 319 318 317 313 309 304 302 303 301 298 298 302 308 306 304 300 299 298 295 297 295 293 290 287 284 283 277 273 259 257 254 257 253
162 148 148 145 138 138 141 144 148 142 137 142 145 184 207 231 245 263 256 264 266 276 296 321 332 332 328 325 320 319 316 313 309 309 309 307 305 305 307 312 312 307 305 306 305 303 300 299 299 298 297 297 295 291 289 283 278 268 264 260 256 249
167 160 141 128 129 140 145 146 145 137 139 147 173 195 217 225 241 253 254 268 270 300 330 332 333 332 326 324 321 318 316 314 312 312 312 308 306 304 302 301 302 303 304 304 304 304 302 299 300 300 299 297 296 294 290 279 272 263 256 255 258 259
142 131 119 128 134 141 146 144 139 132 137 155 201 199 227 218 234 245 266 268 286 323 332 336 335 328 323 321 319 316 314 315 316 312 310 309 309 308 307 305 304 304 303 303 301 299 298 299 302 304 302 301 301 301 294 291 285 268 257 251 245 246
109 105 125 131 136 138 140 140 136 138 153 178 189 196 216 205 227 248 267 281 316 334 333 332 331 325 321 316 312 310 308 307 302 306 311 311 311 310 307 306 303 301 300 301 300 297 302 305 305 307 306 305 303 302 302 302 295 285 273 257 243 233
121 123 121 130 135 147 144 138 136 146 164 175 184 197 196 199 225 270 287 315 336 322 320 324 329 318 309 304 301 304 306 307 310 307 308 303 302 301 302 303 302 300 300 296 296 303 307 301 301 302 302 301 303 306 302 298 296 301 300 284 252 241
121 126 135 143 146 145 141 140 144 154 159 175 178 190 172 153 270 313 322 324 314 305 315 327 320 308 300 297 298 298 297 301 307 311 311 306 302 303 302 301 300 300 299 299 299 300 299 296 295 294 299 307 312 314 311 306 304 300 300 299 283 277
131 137 141 140 141 140 139 140 140 155 165 172 185 157 133 21 330 320 323 310 305 312 323 325 310 301 296 288 290 293 298 305 309 311 310 309 307 302 302 302 301 300 298 300 299 298 298 290 293 300 311 313 311 309 309 302 299 301 299 298 295 280
117 119 121 131 136 136 141 147 149 148 161 184 153 118 95 27 336 327 299 309 307 315 327 320 310 295 289 293 292 299 304 305 305 304 307 307 307 306 305 306 303 304 304 305 303 293 286 298 308 310 309 309 309 310 309 309 304 302 302 302 301 299
130 132 132 136 133 138 144 144 136 147 181 148 125 117 84 4 333 320 301 307 328 344 334 322 308 303 297 297 300 304 308 309 310 308 307 306 306 306 308 310 311 312 314 312 307 305 313 312 313 311 308 308 309 309 309 307 306 306 306 301 295 294
125 125 129 133 137 139 145 144 135 163 152 123 116 124 102 304 326 292 312 344 359 345 335 319 309 300 298 299 306 310 308 312 312 311 308 305 309 315 320 320 322 320 318 320 317 315 311 316 316 313 311 309 308 310 309 308 308 307 303 300 295 294
135 129 126 130 131 130 125 128 141 154 124 126 118 121 107 303 269 306 14 21 6 351 327 317 307 303 299 304 311 315 318 315 317 314 310 308 315 321 325 320 325 328 323 320 317 312 315 321 319 314 311 312 310 307 308 311 309 306 306 302 293 285
115 123 127 130 133 125 122 129 150 136 132 131 116 114 84 210 62 55 41 27 15 345 330 319 316 312 310 312 312 310 310 310 316 315 309 316 322 324 324 322 331 330 327 323 320 314 322 322 316 319 318 311 298 300 312 313 311 307 305 302 293 290
126 129 130 131 137 129 128 135 133 121 125 126 126 128 178 174 90 67 47 31 8 341 327 320 316 322 326 324 316 309 312 314 312 308 307 316 321 310 292 327 337 331 328 326 314 312 319 321 322 324 312 300 303 311 316 318 312 310 310 301 282 282
133 134 133 131 139 136 138 139 132 130 128 122 134 150 164 107 72 66 48 26 9 338 316 316 325 329 322 323 324 316 311 313 308 312 321 327 324 303 315 333 314 316 300 303 316 321 323 322 315 314 315 327 326 324 324 319 315 312 308 309 304 299
129 133 128 130 137 140 143 142 134 133 131 133 143 163 141 96 77 70 54 32 9 333 311 317 316 319 320 321 322 317 297 296 311 320 312 324 315 328 329 308 326 319 329 322 324 319 293 323 324 321 337 336 335 335 331 326 324 322 318 317 318 308
132 132 126 127 138 140 142 139 135 135 130 131 142 161 125 112 94 73 52 33 1 315 313 324 321 321 322 318 320 327 327 318 332 339 334 322 336 339 337 338 326 335 334 329 325 329 341 335 333 336 341 342 342 344 343 342 342 343 345 341 332 316
125 117 123 134 142 143 142 136 134 138 132 133 137 140 127 118 98 82 65 34 348 314 325 321 317 320 316 309 311 320 323 325 327 340 352 350 344 342 340 340 340 341 344 345 333 334 347 344 344 347 350 350 351 353 355 355 350 357 0 1 352 4
138 138 138 141 142 142 139 131 134 134 127 127 130 123 117 109 104 93 79 37 311 305 312 304 307 311 318 315 311 312 318 318 327 329 335 346 350 343 339 340 343 344 346 348 348 347 345 351 354 356 358 358 358 358 358 360 352 4 10 11 22 23
136 131 134 137 141 137 139 132 138 138 129 132 133 126 113 107 97 102 87 29 307 301 311 310 302 313 309 312 317 324 314 322 337 337 329 330 337 343 346 344 345 346 347 350 351 355 2 359 358 0 2 4 2 360 358 2 356 7 16 19 25 14
122 126 133 136 138 137 135 135 139 139 131 134 127 113 113 110 105 115 131 217 272 305 303 302 301 313 309 297 308 303 315 328 337 332 324 325 329 337 341 344 348 347 345 348 351 358 5 3 2 3 4 8 8 4 358 1 354 14 19 24 19 10
125 127 139 139 136 138 139 135 140 131 130 132 136 117 110 106 97 100 47 331 314 285 284 297 313 304 297 299 312 315 333 337 339 338 336 337 333 333 332 329 332 339 345 351 350 360 4 2 0 3 6 9 11 10 1 359 13 13 357 9 5 3
129 134 140 138 135 136 132 132 138 131 131 134 132 114 109 104 92 84 80 301 274 284 276 309 287 304 292 293 312 319 334 336 343 344 338 331 328 322 323 323 331 328 332 349 351 359 2 358 358 3 6 8 13 14 12 8 359 2 3 360 353 354